Location: Crescent
(42.8242°N, 73.7329°W)
Time: 15:15:18
(UTC+00:00)

Courier 1B - Pass Details

Date: 18 February 2026
Orbit: 962 x 1208 km, 28.3° (Epoch: 7 March)

Event Time Altitude Azimuth Distance (km) Brightness Sun altitude
Rises 01:06:47 0° 231° (SW) 3,922 11.2 -29.4°
Reaches altitude 10° 01:10:07 10° 218° (SW) 3,006 10.3 -30.0°
Enters shadow 01:14:22 22° 184° (S) 2,272 9.3 -30.8°
